[[{"header":{"parameterUnit":"m.s-1","parameterCategory":1,"la1":30.2991,"la2":30.254,"lo1":-89.0895,"lo2":-89.0444,"dy":0.0017,"dx":0.0017,"nx":28,"ny":28,"refTime":"2025-12-18T09:00:00:Z","depth":0,"parameterNumber":2,"parameterNumberName":"U-component_of_WINDS"},"data":[0,0,0,0,0,0,0,0,0,0,0,0,0,0,0,0,0,0,0,0,0,0,0,0,0,0,0,0,0,0,0,0,0,0,0,0,0,0,0,0,0,0,0,0,0,0,0,0,0,0,0,0,0,0,0,0,0,0,2.9419,2.942,0,2.9512,2.9513,2.9514,2.951,2.9509,2.9507,2.9506,2.9603,2.9606,2.961,0,0,0,0,0,0,0,0,0,0,0,0,0,2.9242,2.9245,2.9419,2.942,2.9422,2.9512,2.9513,2.9514,2.951,2.9509,2.9507,2.9505,2.9601,2.9606,2.961,0,0,0,0,0,0,0,0,0,0,0,0,0,2.9325,2.9246,2.9419,2.943,2.9432,2.9511,2.9513,2.9514,2.951,2.9508,2.9507,2.9505,2.96,2.9606,2.9611,2.9686,0,0,2.9629,2.9631,0,0,0,0,0,0,0,0,2.932,2.9332,2.9428,2.943,2.9432,2.9497,2.9486,2.9572,2.9511,2.9481,2.9506,2.9504,2.9569,2.9577,2.9599,2.969,2.9694,2.9629,2.9632,2.9635,2.9637,0,0,0,0,0,0,0,2.9315,2.9328,2.9456,2.9429,2.9432,2.9432,2.9441,2.9502,2.9535,2.9483,2.9483,2.9494,2.957,2.9594,2.9601,2.9696,2.9629,2.9634,2.9637,2.964,2.9854,2.9856,0,0,0,0,0,0,2.9306,2.9323,2.9453,2.9459,2.937,2.9436,2.9447,2.9478,2.9534,2.9541,2.9496,2.9494,2.9585,2.9595,2.9605,2.9696,2.9635,2.964,2.9643,2.9852,2.9854,2.9857,0,0,0,0,0,0,2.9302,2.9318,2.9449,2.9391,2.9407,2.9442,2.9477,2.9481,2.9505,2.9544,2.955,2.9513,2.9584,2.9597,2.9666,2.97,2.9643,2.9648,2.9849,2.9852,2.9856,2.988,0,0,0,0,0,0,2.9297,2.9316,2.9344,2.9391,2.9411,2.9508,2.9479,2.9484,2.9514,2.9512,2.9562,2.9568,2.9583,2.9657,2.9671,2.9706,2.9652,2.9846,2.985,2.9855,2.9876,2.9883,2.989,0,0,0,0,0,2.9291,2.9347,2.9346,2.9361,2.9446,2.951,2.9521,2.9536,2.9517,2.9546,2.9571,2.9567,2.9694,2.9664,2.968,2.9718,2.9844,2.9849,2.9854,2.9873,2.9882,2.989,0,0,0,0,0,0,2.9304,2.9354,2.9352,2.9426,2.9463,2.9509,2.9545,2.9545,2.959,2.9586,2.9604,2.9615,2.9685,2.9708,2.9674,2.9793,2.9766,2.9775,2.9775,2.9784,2.9791,2.9784,2.9657,0,0,0,0,0,2.9315,2.9362,2.9403,2.9464,2.9483,2.9511,2.9539,2.9548,2.9588,2.9604,2.9635,2.9674,2.9723,2.9755,2.9802,2.9879,2.9891,2.9913,2.992,2.9926,2.9933,2.9977,2.9987,2.9874,2.9874,2.9874,0,0,2.9339,2.9372,2.94,2.9467,2.9498,2.9547,2.9524,2.9577,2.9614,2.9612,2.9679,2.9703,2.9749,2.9822,2.9856,2.9844,2.9967,2.9932,2.9936,2.9941,2.9983,2.9994,3.0003,2.9877,2.9876,2.9876,0,0,2.9407,2.9437,2.9491,2.9522,2.9568,2.9587,2.96,2.9646,2.9661,2.9729,2.9729,2.9774,2.9857,2.989,2.9918,3.0,2.9998,3.0015,3.0052,3.0094,3.0103,3.0111,3.0141,3.0152,3.0022,3.0022,3.0022,0,2.9431,2.9504,2.9519,2.9572,2.9602,2.9603,2.9659,2.9689,2.9748,2.9769,2.9754,2.986,2.9891,2.9973,2.9993,3.0015,3.0032,3.001,3.01,3.0109,3.0116,3.0146,3.0157,3.0024,3.0024,3.0024,3.0024,0,2.9532,2.9583,2.9621,2.9678,2.9713,2.9767,2.9791,2.9824,2.983,2.9851,2.992,2.9957,3.0013,3.0033,3.0039,3.0116,3.0107,3.0096,3.007,3.0129,3.0156,3.0168,3.0027,3.0026,3.0026,3.0025,0,0,2.961,2.9676,2.969,2.9716,2.9768,2.9808,2.9863,2.9916,2.9945,2.9986,3.0033,3.0105,3.0095,3.0127,3.0137,3.0174,3.0239,3.0159,3.0161,3.0173,3.0327,3.0335,3.0347,3.0238,3.024,3.0242,3.0323,0,2.9684,2.9781,2.9797,2.9882,2.993,2.9932,2.998,3.0018,3.0038,3.0083,3.0106,3.0157,3.014,3.0159,3.0196,3.0223,3.027,3.0217,3.0283,3.0285,3.0271,3.0362,3.037,3.0445,3.0334,3.0336,3.0337,0,2.9784,2.9827,2.9917,2.9964,2.9984,3.0027,3.0078,3.012,3.0163,3.0176,3.0212,3.0218,3.0276,3.0247,3.0329,3.0292,3.032,3.0338,3.0341,3.0348,3.0314,3.0371,3.0469,3.0481,3.0354,3.0353,3.0352,0,2.9832,2.9914,2.9979,3.0001,3.0057,3.0087,3.0111,3.0152,3.0184,3.0229,3.025,3.0301,3.033,3.037,3.039,3.0367,3.0471,3.0443,3.0484,3.0483,3.0505,3.0504,3.061,3.0523,3.0523,3.0522,3.0522,0,2.9914,2.9969,3.0002,3.0041,3.0104,3.0122,3.0183,3.0207,3.0244,3.0289,3.0295,3.0337,3.0362,3.0408,3.0425,3.049,3.0503,3.0515,3.0519,3.0515,3.0514,3.0534,3.0529,3.0525,3.0525,3.0524,3.0524,0,2.9979,3.0003,3.0073,3.012,3.0133,3.0177,3.0218,3.0257,3.0278,3.0336,3.035,3.0384,3.0439,3.0463,3.0532,3.0543,3.0618,3.0617,3.0603,3.0604,3.0644,3.064,3.0766,3.0784,3.0685,3.0686,3.0687,0,3.0029,3.0071,3.0123,3.0154,3.0179,3.0228,3.0261,3.0281,3.0314,3.0367,3.0401,3.0456,3.0501,3.0589,3.062,3.0673,3.0674,3.0715,3.0682,3.0677,3.0676,3.0673,3.0678,3.0721,3.0722,3.0723,3.0724,0,3.0116,3.0126,3.0172,3.0223,3.0262,3.0303,3.0343,3.0368,3.0395,3.0433,3.0489,3.0524,3.0594,3.0649,3.0704,3.073,3.0732,3.0734,3.0746,3.0742,3.0732,3.0739,3.0619,3.0731,3.073,3.0729,3.0729,3.0729,3.0176,3.0214,3.0256,3.0308,3.0341,3.0378,3.0418,3.0444,3.0491,3.0549,3.0559,3.0619,3.0663,3.0736,3.0765,3.0813,3.0803,3.0821,3.0825,3.0829,3.0832,3.0724,3.0823,3.0823,3.0823,3.0822,3.0822,0,3.0263,3.0291,3.0338,3.0395,3.0436,3.0434,3.0479,3.0513,3.0566,3.0606,3.0651,3.0716,3.077,3.0805,3.086,3.0892,3.0894,3.0906,3.0904,3.091,3.0837,3.0821,3.0903,3.0903,3.0903,3.0903,3.0903,3.0903,3.0314,3.0379,3.0394,3.0476,3.0503,3.0562,3.0588,3.0623,3.0656,3.0728,3.0773,3.0796,3.0834,3.0892,3.0942,3.0951,3.0971,3.0983,3.0992,3.0923,3.0915,3.0907,3.0892,3.0987,3.0988,3.1061,3.1062,3.1062]},{"header":{"parameterUnit":"m.s-1","parameterCategory":1,"la1":30.2991,"la2":30.254,"lo1":-89.0895,"lo2":-89.0444,"dy":0.0017,"dx":0.0017,"nx":28,"ny":28,"refTime":"2025-12-18T09:00:00:Z","depth":0,"parameterNumber":3,"parameterNumberName":"V-component_of_WINDS"},"data":[0,0,0,0,0,0,0,0,0,0,0,0,0,0,0,0,0,0,0,0,0,0,0,0,0,0,0,0,0,0,0,0,0,0,0,0,0,0,0,0,0,0,0,0,0,0,0,0,0,0,0,0,0,0,0,0,0,0,3.4681,3.4682,0,3.4828,3.4829,3.4831,3.4833,3.4831,3.4829,3.4827,3.498,3.4985,3.4991,0,0,0,0,0,0,0,0,0,0,0,0,0,3.4403,3.4409,3.4681,3.4683,3.4684,3.4827,3.4829,3.4831,3.4833,3.4831,3.4829,3.4827,3.4978,3.4984,3.4991,0,0,0,0,0,0,0,0,0,0,0,0,0,3.4535,3.441,3.468,3.4702,3.4706,3.4827,3.483,3.4832,3.4834,3.4831,3.4828,3.4825,3.4975,3.4984,3.4992,3.5102,0,0,3.5019,3.5023,0,0,0,0,0,0,0,0,3.4527,3.4545,3.4697,3.4701,3.4705,3.4809,3.4788,3.4923,3.4834,3.4785,3.4827,3.4824,3.4925,3.4938,3.4972,3.5109,3.5115,3.502,3.5025,3.5029,3.5031,0,0,0,0,0,0,0,3.4518,3.4538,3.4739,3.47,3.4704,3.4706,3.4721,3.4813,3.4869,3.4789,3.479,3.4807,3.4927,3.4963,3.4975,3.5118,3.5019,3.5027,3.5032,3.5036,3.5354,3.5358,0,0,0,0,0,0,3.4504,3.4531,3.4734,3.4743,3.4607,3.4713,3.473,3.4779,3.4868,3.4879,3.4809,3.4807,3.495,3.4965,3.498,3.5117,3.5029,3.5037,3.5042,3.5351,3.5355,3.5359,0,0,0,0,0,0,3.4498,3.4522,3.4728,3.4637,3.4664,3.4721,3.4775,3.4783,3.4819,3.4883,3.4893,3.4836,3.4948,3.4968,3.5072,3.5122,3.5041,3.5048,3.5347,3.5352,3.5357,3.5388,0,0,0,0,0,0,3.449,3.452,3.4562,3.4638,3.4668,3.4817,3.4778,3.4788,3.4834,3.4832,3.4911,3.4922,3.4947,3.5059,3.5081,3.5132,3.5055,3.5343,3.535,3.5355,3.5383,3.5394,3.5403,0,0,0,0,0,3.448,3.4565,3.4564,3.4589,3.4722,3.482,3.4837,3.4865,3.4838,3.4881,3.4922,3.4919,3.5112,3.507,3.5094,3.5149,3.534,3.5348,3.5355,3.5379,3.5392,3.5402,0,0,0,0,0,0,3.4493,3.4575,3.4575,3.4687,3.4746,3.482,3.4875,3.4877,3.4946,3.4941,3.4973,3.4991,3.5095,3.5132,3.5083,3.5261,3.5223,3.5236,3.5233,3.5246,3.5255,3.5245,3.5062,0,0,0,0,0,3.4509,3.4581,3.4649,3.4741,3.4771,3.4818,3.4861,3.4877,3.4941,3.4966,3.5015,3.5077,3.5151,3.52,3.5272,3.5388,3.5406,3.5437,3.5447,3.5455,3.5466,3.5532,3.5547,3.5383,3.5383,3.5383,0,0,3.4542,3.4596,3.464,3.4745,3.4793,3.4868,3.4839,3.4919,3.4976,3.4978,3.508,3.5118,3.5189,3.5299,3.535,3.5334,3.5515,3.5464,3.547,3.5477,3.5541,3.5557,3.557,3.5388,3.5387,3.5386,0,0,3.4642,3.4689,3.4772,3.4821,3.4894,3.4924,3.4944,3.5018,3.5043,3.5145,3.5149,3.5217,3.5345,3.5396,3.5439,3.5558,3.5559,3.5581,3.5633,3.5696,3.571,3.5721,3.5766,3.5782,3.5591,3.5591,3.5591,0,3.4675,3.4788,3.4814,3.4895,3.4942,3.4947,3.5032,3.5078,3.5171,3.5204,3.5183,3.5345,3.5393,3.5516,3.5546,3.5579,3.5604,3.5573,3.5705,3.5717,3.5729,3.5772,3.5789,3.5594,3.5593,3.5593,3.5593,0,3.4826,3.4904,3.4962,3.5052,3.5105,3.5187,3.5227,3.5278,3.5289,3.5322,3.5427,3.5485,3.557,3.56,3.5611,3.5726,3.5713,3.5698,3.5662,3.5746,3.5788,3.5804,3.5597,3.5596,3.5596,3.5595,0,0,3.4939,3.5042,3.5064,3.5105,3.5186,3.5248,3.5331,3.5413,3.5457,3.5521,3.5593,3.5701,3.5688,3.5737,3.5754,3.581,3.5904,3.5789,3.5791,3.581,3.6035,3.6048,3.6066,3.5903,3.5906,3.5909,3.603,0,3.505,3.5197,3.5224,3.5353,3.5427,3.5433,3.5505,3.5563,3.5597,3.5664,3.5701,3.5778,3.5754,3.5784,3.5839,3.588,3.595,3.5872,3.5972,3.5975,3.5957,3.6088,3.6101,3.6213,3.6046,3.6049,3.6051,0,3.5199,3.5267,3.5403,3.5476,3.5508,3.5573,3.5651,3.5715,3.5782,3.5802,3.5856,3.5868,3.5955,3.5913,3.6035,3.5981,3.6024,3.605,3.6055,3.6068,3.602,3.6106,3.6249,3.6266,3.6076,3.6074,3.6072,0,3.5271,3.5396,3.5495,3.553,3.5616,3.5662,3.57,3.5763,3.5812,3.5881,3.5913,3.599,3.6034,3.6094,3.6127,3.6092,3.6247,3.6207,3.6268,3.6268,3.6303,3.6301,3.6457,3.6326,3.6325,3.6325,3.6325,0,3.5393,3.5477,3.5529,3.559,3.5684,3.5714,3.5807,3.5844,3.5901,3.597,3.5979,3.6044,3.6081,3.6152,3.6177,3.6276,3.6295,3.6315,3.6321,3.6316,3.6314,3.6346,3.634,3.633,3.6329,3.6328,3.6327,0,3.549,3.5528,3.5637,3.5709,3.573,3.5797,3.5859,3.5919,3.5952,3.6039,3.6061,3.6113,3.6196,3.6234,3.6337,3.6354,3.6468,3.6467,3.6445,3.6448,3.6508,3.6503,3.6693,3.672,3.6568,3.657,3.6571,0,3.5567,3.5632,3.5712,3.5759,3.5798,3.5873,3.5923,3.5954,3.6006,3.6087,3.6137,3.6221,3.629,3.6423,3.6471,3.655,3.6553,3.6614,3.6565,3.6558,3.6557,3.6554,3.6561,3.6623,3.6625,3.6626,3.6627,0,3.57,3.5716,3.5787,3.5865,3.5924,3.5987,3.6049,3.6087,3.6128,3.6186,3.6271,3.6324,3.643,3.6514,3.6596,3.6636,3.664,3.6642,3.6661,3.6657,3.6643,3.6654,3.6472,3.6638,3.6637,3.6636,3.6635,3.6635,3.5792,3.585,3.5916,3.5996,3.6045,3.6103,3.6164,3.6204,3.6275,3.6364,3.6377,3.6469,3.6535,3.6646,3.6689,3.6761,3.6747,3.6774,3.6781,3.6788,3.6793,3.6629,3.6776,3.6776,3.6776,3.6775,3.6775,0,3.5927,3.597,3.6043,3.6129,3.6192,3.6188,3.6256,3.631,3.639,3.6451,3.6518,3.6617,3.6699,3.6752,3.6835,3.6883,3.6887,3.6904,3.6902,3.6911,3.6799,3.6776,3.6899,3.6899,3.6899,3.6899,3.6899,3.6899,3.6006,3.6106,3.6129,3.6254,3.6296,3.6386,3.6426,3.648,3.6528,3.6639,3.6706,3.674,3.6798,3.6885,3.696,3.6974,3.7005,3.7023,3.7037,3.6932,3.6919,3.6907,3.6885,3.7029,3.7029,3.7143,3.7144,3.7145]}]]